Wind_Speed
24 24 25 25 26 26 24 23 23 23 23 24 24 24 24 26 26 26 23 22 21 21 20 20 20 19 19 18 18 17 17 16 15 14 13 12 11 11 11 11 12 12 11 10 10 10 9 8 8
24 25 26 27 27 26 24 24 25 24 24 25 25 25 25 27 26 25 24 23 23 23 22 22 22 21 21 20 20 19 18 18 17 16 15 14 13 13 12 12 13 14 13 12 11 11 10 10 9
25 26 27 28 28 26 26 26 26 26 25 26 26 26 27 27 26 25 25 25 25 24 24 24 23 23 23 22 22 21 20 19 19 18 17 17 15 15 14 14 14 15 15 14 13 12 12 11 10
26 27 28 28 27 26 27 27 27 27 26 27 28 28 28 27 26 27 27 27 26 26 26 26 25 25 24 24 23 23 22 21 21 20 19 18 18 17 16 15 15 16 16 15 15 14 13 13 11
27 28 28 28 27 27 28 28 28 28 28 28 29 29 29 28 28 29 29 29 28 28 28 27 27 26 26 25 25 24 23 23 23 22 21 20 19 19 18 17 16 17 17 16 16 16 15 14 14
27 28 29 28 27 27 28 28 28 28 28 29 29 29 29 28 29 30 30 30 29 29 29 29 28 28 28 27 27 26 25 25 24 24 23 22 21 20 20 19 18 18 18 18 17 17 16 16 16
28 28 28 28 27 27 28 28 29 29 29 29 29 29 30 28 29 30 30 30 30 30 30 30 29 29 29 29 28 27 27 26 25 25 24 24 23 22 22 21 20 20 20 20 19 19 18 17 17
29 30 29 28 28 28 28 29 29 29 29 29 29 29 29 28 29 30 30 30 31 30 31 31 30 30 30 30 29 28 28 28 27 26 25 25 24 24 23 23 22 21 21 21 21 20 20 19 18
31 31 29 28 29 29 29 28 28 29 29 29 29 29 29 28 29 30 30 30 30 30 31 31 31 30 31 31 30 30 29 29 29 28 27 27 26 25 24 24 23 23 23 23 23 22 22 21 20
32 32 30 30 30 30 30 29 29 29 29 29 29 29 29 28 29 29 29 29 30 30 31 32 32 32 31 31 31 31 31 30 30 30 29 28 28 27 26 26 25 25 24 24 24 24 23 22 22
34 33 32 32 32 32 32 31 30 30 30 30 29 29 29 29 28 28 29 29 30 30 30 31 32 33 33 32 32 32 32 31 30 30 30 30 29 29 28 28 27 26 26 26 26 25 25 24 23
35 34 34 34 34 34 33 33 32 31 31 31 30 29 29 29 29 29 29 30 30 30 31 31 32 32 33 34 33 33 33 33 32 31 30 30 30 30 30 29 29 28 28 28 28 28 27 26 26
36 35 36 36 36 35 35 34 33 32 32 32 31 30 30 30 30 30 30 30 31 30 31 32 32 32 33 33 33 33 33 33 33 32 31 30 29 30 30 30 30 30 29 30 30 30 29 29 28
37 37 37 37 37 36 36 35 35 32 33 33 32 32 31 31 31 31 31 31 31 31 31 31 32 32 32 33 33 33 33 33 33 33 32 32 31 30 30 30 30 30 30 30 30 31 31 31 30
39 39 39 38 38 38 38 37 35 34 35 35 34 34 33 33 33 33 33 32 32 32 32 32 32 32 32 33 33 34 34 34 34 34 34 33 33 32 31 31 31 31 30 30 31 31 31 32 32
41 42 41 39 39 39 40 38 35 36 36 36 36 35 35 35 35 34 34 33 33 33 33 33 33 33 33 33 33 34 35 35 35 36 35 35 34 34 34 34 33 32 32 32 32 32 32 33 33
43 43 42 41 41 41 41 39 37 38 38 37 37 37 36 36 36 35 34 34 33 34 34 34 35 35 34 34 34 34 35 36 36 37 37 36 36 36 36 36 35 34 33 33 34 34 34 34 35
43 43 43 43 43 43 43 41 40 39 39 39 38 37 37 37 36 36 35 35 34 34 35 36 36 35 34 34 35 35 35 36 36 37 38 37 37 37 37 37 36 36 36 35 35 35 35 35 36
45 45 45 44 45 46 45 44 42 41 41 40 39 39 39 38 38 37 36 36 35 35 35 36 37 36 36 35 35 35 35 36 36 37 38 38 38 38 37 37 37 37 37 38 38 37 37 37 37
47 47 47 46 46 47 47 46 44 43 42 41 41 40 40 40 39 39 37 36 36 36 36 36 36 36 36 36 37 37 36 36 36 37 38 38 39 38 38 38 38 38 38 39 39 39 39 38 38
47 47 47 47 47 48 49 49 47 45 43 43 42 41 41 40 40 40 39 38 37 37 37 37 37 37 37 37 38 38 37 37 38 38 38 39 39 40 39 39 39 39 40 40 41 41 41 40 40
46 46 47 48 48 49 50 51 47 46 45 44 43 42 42 41 41 41 40 40 39 38 38 38 38 38 37 38 39 39 38 38 38 39 39 39 40 41 41 40 40 39 40 41 41 41 41 41 41
46 46 47 48 49 50 50 51 49 47 47 45 44 44 43 43 42 42 41 41 40 39 38 38 38 38 38 38 38 39 39 39 40 40 40 40 41 41 42 42 42 41 41 41 42 42 42 42 41
45 45 46 47 49 51 48 50 51 48 46 46 45 44 44 44 43 43 43 43 42 40 39 39 39 39 38 38 38 39 39 40 40 40 41 41 42 42 42 42 43 43 43 42 42 42 42 43 43
42 43 43 45 47 50 47 49 50 47 46 46 46 45 45 44 44 43 43 43 43 42 40 40 40 40 39 39 39 39 40 40 40 40 41 41 41 41 42 42 43 42 42 43 43 43 42 43 43
41 42 43 44 46 47 47 48 47 46 46 46 46 45 45 45 44 44 43 43 43 43 41 41 41 41 41 40 40 40 41 41 41 41 41 41 41 41 41 41 42 42 43 43 43 43 43 43 44
41 41 42 43 44 46 47 48 48 46 46 45 45 44 44 44 44 44 44 44 45 44 43 42 41 42 41 41 41 41 41 42 42 42 42 42 41 41 41 41 41 42 43 44 45 44 45 45 44
39 40 39 42 42 44 46 45 46 45 45 45 44 44 43 43 43 43 44 44 44 44 44 42 41 41 41 41 41 41 41 42 42 42 42 43 43 43 43 42 43 43 43 44 45 45 45 45 45
34 36 39 41 42 41 41 40 41 42 44 44 43 43 42 42 43 43 43 44 44 44 44 44 43 43 42 42 42 41 41 41 41 41 42 43 43 43 43 43 43 43 44 45 46 46 45 45 45
31 32 34 36 38 39 39 40 39 41 41 41 42 42 42 42 42 42 42 43 44 45 45 44 44 43 43 43 42 42 42 41 42 42 42 43 43 43 43 43 43 42 43 44 44 45 44 44 44
Wind_Direction
249 249 249 248 248 248 249 248 246 244 244 245 246 246 245 246 246 247 248 245 244 242 242 241 240 240 240 239 237 235 233 232 232 230 228 229 229 228 226 224 223 220 219 219 217 215 214 213 211
250 250 249 249 249 250 250 248 247 245 245 247 247 246 246 247 247 248 248 246 244 243 242 241 241 241 241 240 239 237 236 235 235 234 232 233 233 232 232 229 226 223 223 222 221 219 218 218 217
251 250 250 250 251 252 252 250 248 246 245 246 246 246 246 247 247 247 247 246 244 244 243 242 241 241 241 240 240 239 238 238 238 237 236 236 236 235 236 234 230 227 226 226 226 224 223 223 224
252 251 251 251 251 252 251 249 248 248 246 247 247 247 247 248 248 248 248 247 246 245 244 243 241 241 241 239 240 239 239 239 239 239 237 238 238 237 237 238 235 231 229 228 228 229 227 228 230
253 252 252 251 251 250 250 249 248 248 247 247 248 248 248 248 248 247 247 247 247 246 245 244 242 241 240 239 239 239 239 239 240 240 239 238 239 238 238 241 240 235 231 231 231 230 231 234 235
254 253 253 252 251 249 249 248 248 249 248 248 249 249 249 248 249 249 248 246 246 245 244 244 243 242 240 239 239 239 239 240 241 241 240 240 239 240 239 240 242 240 235 234 233 233 235 237 239
255 254 253 252 251 249 248 248 247 247 249 249 249 250 250 249 249 249 248 248 246 244 244 243 243 241 240 240 240 239 239 240 240 241 240 240 240 240 241 240 241 242 240 237 236 234 235 238 240
256 255 253 252 251 250 249 248 248 248 249 250 250 251 251 250 249 249 248 248 246 245 243 242 241 240 240 241 239 239 239 240 240 241 241 241 241 241 241 242 242 242 242 242 239 238 238 241 243
256 255 254 253 252 251 251 250 249 250 251 251 252 252 253 251 248 248 247 247 245 244 243 242 241 241 240 241 239 239 239 240 241 241 242 242 242 241 242 242 242 242 242 243 242 242 242 243 245
256 256 255 253 252 252 250 250 250 250 252 252 252 252 252 250 248 247 247 246 245 244 244 243 242 243 241 241 239 239 239 240 242 242 243 243 243 242 242 242 243 244 243 244 244 244 244 245 245
257 256 254 253 253 252 251 250 251 251 252 253 252 251 249 248 248 247 247 247 245 244 244 244 244 244 242 241 240 240 240 240 241 243 244 244 244 244 244 243 244 245 245 245 246 246 246 245 247
257 255 254 253 252 252 252 250 250 251 251 252 252 250 248 247 246 246 247 247 246 245 245 244 245 246 244 243 242 241 241 241 242 243 244 245 245 245 245 245 245 245 246 247 248 248 248 247 248
256 255 254 253 252 252 251 250 250 250 251 251 251 250 248 247 247 247 248 247 246 246 246 246 246 247 245 243 242 242 242 242 242 242 244 245 245 244 244 244 245 247 248 249 248 249 250 251 252
257 255 253 253 252 252 251 250 250 249 250 250 250 250 249 248 248 248 249 249 248 248 247 246 247 246 245 243 243 242 242 242 242 243 244 245 246 245 245 244 246 247 248 250 250 250 251 252 254
256 255 254 253 253 253 252 250 250 249 250 250 250 250 249 248 249 249 249 249 249 249 248 247 247 246 245 245 245 244 244 244 244 244 245 246 246 247 247 246 247 248 249 251 252 252 251 252 253
255 254 254 254 254 253 252 251 249 249 249 250 250 250 250 249 250 249 250 250 250 249 248 247 246 244 245 246 247 245 245 245 245 244 245 246 247 248 248 249 249 249 250 252 253 254 253 254 254
255 256 256 254 254 254 253 252 249 249 249 250 250 250 250 250 250 250 250 251 250 250 248 248 247 245 245 247 249 248 246 246 246 245 245 247 248 249 249 251 252 251 252 253 254 255 255 255 255
257 257 256 255 254 254 253 252 250 249 249 249 250 250 250 250 250 249 249 250 250 250 249 247 246 246 247 248 248 248 248 247 247 246 246 247 248 250 250 251 252 253 253 254 255 256 257 257 257
256 255 255 254 254 254 253 252 250 250 249 249 250 250 250 250 250 249 249 249 250 250 249 249 247 247 248 249 248 247 248 248 248 247 247 247 247 250 252 252 252 253 254 256 257 259 259 259 259
254 254 254 254 254 254 253 251 250 249 250 250 250 250 250 250 249 249 249 249 250 250 250 249 248 248 249 248 247 247 247 248 248 247 247 248 248 250 252 252 254 255 256 257 259 260 260 260 260
252 253 253 254 253 253 253 251 250 250 249 250 250 250 250 249 249 249 248 249 249 250 250 250 248 249 249 247 246 246 247 248 248 248 249 250 250 251 252 254 255 255 256 257 259 260 260 260 261
252 252 252 252 253 253 253 254 250 251 250 249 250 250 250 250 249 249 248 248 248 249 249 249 248 249 249 249 248 247 248 249 249 249 250 251 251 252 253 254 255 256 257 258 259 260 260 260 262
252 251 251 252 252 253 253 254 251 251 251 249 250 250 250 250 250 249 248 248 247 248 249 249 249 249 250 250 249 249 248 249 249 250 251 251 252 253 254 255 256 256 258 260 261 261 260 261 261
251 251 252 252 252 252 252 254 253 251 251 251 250 250 250 249 249 249 248 247 246 248 249 250 249 249 250 251 251 250 250 249 250 251 251 252 253 254 255 256 257 259 260 261 262 262 261 260 261
250 249 250 251 251 252 251 253 254 253 252 252 251 251 250 248 248 248 247 247 247 248 249 250 249 249 250 251 252 252 252 252 251 251 252 252 254 255 256 257 258 259 260 261 262 262 261 261 262
249 248 248 250 251 253 251 252 253 254 253 253 252 251 250 248 247 247 247 247 247 247 248 249 249 249 250 251 251 252 252 253 252 252 253 253 254 255 256 257 257 258 260 262 263 262 262 262 263
249 248 248 249 250 251 251 252 253 252 252 252 252 251 250 250 248 246 246 246 247 247 248 249 249 249 249 251 251 252 252 253 252 252 253 254 253 254 256 257 259 259 260 261 262 263 263 263 263
249 247 246 245 247 250 251 252 253 251 252 252 251 250 250 250 249 247 245 245 246 247 247 248 249 251 250 251 251 252 252 252 252 252 253 254 254 255 256 257 259 261 262 262 262 262 263 263 264
248 245 244 245 245 248 251 252 251 251 250 249 249 249 249 249 249 248 247 246 245 246 247 248 250 251 252 252 252 251 251 252 253 253 253 253 255 257 257 257 258 260 262 263 263 263 263 264 264
248 246 243 244 244 244 247 249 248 249 250 249 249 249 248 248 249 248 247 246 246 246 247 247 249 250 251 251 251 250 249 252 253 253 253 255 256 257 258 259 259 260 261 262 263 264 264 264 264
Height
5801 5802 5803 5804 5805 5807 5809 5811 5812 5813 5815 5816 5817 5819 5821 5822 5823 5826 5827 5829 5830 5832 5834 5835 5836 5838 5840 5841 5843 5845 5846 5848 5849 5850 5851 5853 5854 5855 5856 5856 5858 5859 5860 5862 5863 5864 5865 5866 5866
5796 5797 5799 5799 5800 5802 5805 5806 5807 5809 5811 5812 5813 5815 5816 5817 5819 5821 5823 5825 5826 5828 5830 5831 5833 5835 5836 5838 5840 5842 5843 5845 5847 5848 5849 5851 5852 5853 5854 5855 5856 5857 5859 5860 5861 5863 5864 5864 5865
5791 5792 5794 5794 5796 5798 5800 5801 5802 5803 5806 5807 5809 5810 5811 5813 5815 5817 5818 5820 5822 5824 5826 5827 5829 5831 5832 5834 5836 5838 5840 5842 5844 5845 5847 5848 5849 5851 5852 5853 5854 5855 5857 5858 5860 5861 5862 5863 5864
5786 5787 5789 5790 5791 5793 5794 5795 5797 5798 5801 5802 5803 5805 5807 5809 5811 5812 5813 5815 5817 5819 5821 5823 5825 5827 5828 5830 5832 5834 5837 5839 5840 5842 5844 5845 5847 5848 5849 5851 5852 5853 5855 5856 5858 5859 5860 5861 5863
5781 5782 5783 5784 5786 5788 5788 5790 5791 5793 5795 5796 5798 5800 5801 5804 5805 5807 5808 5810 5812 5814 5816 5818 5820 5822 5824 5826 5828 5830 5833 5835 5837 5839 5841 5842 5844 5845 5847 5848 5849 5851 5852 5854 5856 5857 5858 5860 5861
5775 5776 5777 5779 5780 5782 5782 5784 5786 5787 5789 5791 5792 5794 5796 5798 5799 5801 5802 5804 5806 5808 5810 5812 5815 5817 5819 5822 5824 5826 5829 5831 5833 5835 5837 5839 5840 5842 5844 5845 5847 5848 5850 5851 5853 5855 5856 5857 5858
5769 5770 5771 5773 5774 5775 5777 5778 5779 5781 5782 5785 5786 5788 5789 5792 5793 5795 5796 5798 5800 5802 5805 5807 5809 5812 5814 5817 5819 5822 5824 5826 5829 5831 5833 5835 5837 5838 5840 5842 5843 5845 5847 5848 5850 5852 5853 5854 5856
5762 5764 5765 5766 5768 5770 5770 5772 5773 5775 5777 5778 5780 5782 5783 5786 5787 5789 5791 5792 5794 5797 5799 5801 5804 5806 5809 5811 5814 5817 5819 5822 5824 5826 5828 5831 5833 5835 5836 5838 5840 5842 5843 5845 5847 5848 5850 5851 5853
5755 5757 5759 5761 5762 5763 5764 5766 5768 5769 5771 5772 5774 5776 5778 5779 5781 5782 5784 5786 5788 5791 5793 5796 5798 5801 5803 5806 5809 5812 5814 5817 5819 5821 5824 5826 5828 5830 5832 5834 5836 5838 5840 5841 5843 5845 5846 5848 5849
5748 5750 5754 5755 5755 5756 5758 5760 5761 5763 5764 5766 5768 5769 5771 5773 5774 5777 5779 5780 5782 5785 5787 5790 5792 5795 5798 5800 5803 5806 5809 5811 5814 5816 5819 5821 5823 5826 5828 5830 5832 5834 5836 5837 5839 5841 5843 5844 5846
5741 5744 5746 5746 5747 5749 5751 5753 5755 5756 5758 5760 5761 5763 5764 5766 5768 5771 5773 5774 5776 5779 5781 5783 5786 5788 5792 5794 5797 5800 5803 5806 5808 5811 5814 5816 5818 5821 5823 5825 5827 5829 5831 5833 5835 5837 5838 5840 5842
5733 5736 5737 5738 5740 5741 5743 5746 5748 5750 5752 5753 5754 5756 5758 5760 5762 5764 5766 5768 5770 5773 5775 5777 5779 5782 5785 5788 5791 5794 5797 5800 5803 5805 5808 5810 5813 5815 5818 5820 5822 5824 5826 5828 5830 5832 5834 5835 5837
5724 5727 5728 5730 5731 5733 5736 5738 5740 5743 5745 5745 5747 5749 5752 5754 5756 5758 5760 5762 5764 5766 5768 5771 5773 5775 5778 5781 5784 5787 5790 5794 5796 5799 5802 5805 5807 5810 5812 5814 5817 5819 5821 5823 5825 5827 5829 5830 5832
5716 5717 5719 5721 5723 5725 5727 5730 5732 5736 5737 5738 5740 5743 5745 5747 5749 5752 5754 5756 5758 5760 5762 5764 5766 5769 5772 5775 5778 5781 5784 5787 5790 5793 5796 5798 5801 5803 5806 5808 5811 5813 5815 5817 5819 5821 5823 5824 5826
5705 5707 5709 5712 5714 5716 5718 5721 5725 5728 5728 5730 5733 5735 5738 5740 5742 5745 5747 5749 5751 5753 5755 5757 5760 5762 5765 5768 5771 5774 5777 5780 5783 5786 5789 5791 5794 5797 5799 5802 5804 5807 5809 5811 5813 5814 5816 5818 5819
5694 5696 5699 5704 5705 5706 5709 5712 5718 5718 5720 5723 5725 5727 5730 5733 5735 5737 5739 5742 5744 5746 5748 5750 5753 5756 5759 5761 5764 5767 5770 5773 5776 5779 5782 5784 5787 5789 5792 5795 5797 5800 5802 5804 5806 5808 5810 5811 5812
5683 5686 5690 5693 5695 5696 5698 5703 5708 5709 5711 5714 5716 5719 5722 5724 5727 5729 5732 5734 5736 5738 5741 5743 5746 5749 5751 5754 5757 5759 5762 5765 5768 5771 5774 5777 5780 5782 5785 5788 5790 5792 5795 5796 5798 5800 5802 5804 5805
5675 5677 5680 5682 5684 5685 5688 5693 5697 5699 5702 5705 5707 5710 5713 5716 5719 5721 5724 5726 5728 5731 5733 5736 5739 5741 5744 5746 5749 5752 5755 5758 5760 5763 5766 5769 5772 5775 5777 5780 5782 5785 5787 5788 5790 5792 5794 5795 5797
5663 5665 5667 5671 5672 5674 5677 5681 5686 5688 5692 5695 5698 5701 5704 5707 5710 5712 5715 5718 5721 5723 5726 5728 5731 5733 5736 5739 5741 5744 5747 5750 5753 5755 5758 5761 5764 5766 5769 5772 5774 5776 5779 5780 5782 5784 5785 5787 5789
5650 5652 5655 5659 5660 5662 5665 5670 5674 5678 5682 5685 5689 5692 5695 5698 5701 5704 5707 5709 5712 5715 5717 5720 5722 5725 5728 5731 5733 5736 5739 5742 5745 5747 5750 5752 5755 5758 5761 5763 5766 5768 5770 5772 5774 5775 5777 5778 5780
5637 5640 5644 5646 5649 5650 5653 5658 5663 5668 5671 5675 5678 5682 5685 5688 5691 5694 5697 5700 5703 5706 5709 5711 5714 5717 5719 5722 5725 5728 5731 5733 5736 5739 5742 5744 5747 5750 5752 5755 5757 5759 5761 5763 5765 5766 5768 5769 5771
5624 5629 5631 5633 5635 5638 5642 5644 5653 5656 5660 5664 5668 5672 5675 5678 5682 5685 5688 5691 5694 5697 5700 5703 5705 5708 5711 5713 5716 5719 5722 5725 5728 5730 5733 5735 5738 5741 5743 5745 5748 5750 5752 5754 5755 5757 5758 5760 5761
5613 5617 5619 5621 5623 5625 5630 5632 5640 5644 5648 5653 5658 5661 5665 5668 5671 5675 5678 5682 5685 5688 5691 5693 5696 5699 5702 5705 5708 5710 5713 5716 5719 5721 5724 5726 5729 5731 5734 5736 5738 5740 5742 5744 5745 5747 5748 5750 5751
5600 5604 5606 5608 5609 5612 5620 5621 5626 5633 5638 5642 5647 5650 5653 5657 5661 5664 5668 5671 5675 5678 5681 5684 5687 5690 5693 5696 5698 5701 5704 5706 5709 5712 5714 5716 5719 5721 5724 5726 5728 5730 5732 5734 5735 5737 5738 5740 5741
5588 5592 5593 5594 5595 5600 5610 5609 5615 5622 5627 5631 5635 5639 5642 5646 5650 5654 5658 5661 5665 5669 5672 5675 5678 5681 5684 5686 5689 5692 5694 5696 5699 5701 5704 5706 5709 5711 5714 5716 5718 5720 5721 5723 5724 5726 5727 5729 5730
5575 5579 5582 5584 5587 5592 5597 5597 5606 5612 5615 5619 5623 5627 5630 5635 5639 5643 5647 5651 5655 5658 5662 5665 5668 5671 5674 5677 5679 5681 5684 5686 5689 5691 5694 5696 5698 5701 5703 5705 5707 5709 5711 5712 5714 5715 5716 5717 5718
5564 5567 5572 5574 5576 5579 5583 5588 5595 5599 5602 5607 5611 5615 5619 5623 5628 5632 5636 5640 5644 5648 5652 5655 5658 5661 5664 5666 5669 5671 5674 5676 5678 5681 5683 5686 5688 5690 5693 5695 5697 5698 5700 5701 5702 5703 5705 5706 5707
5553 5556 5560 5562 5565 5568 5573 5579 5584 5588 5592 5596 5600 5604 5608 5612 5616 5620 5625 5629 5633 5637 5641 5644 5647 5650 5653 5656 5658 5661 5663 5665 5668 5670 5673 5675 5678 5680 5682 5684 5686 5687 5689 5690 5691 5692 5693 5694 5695
5543 5546 5548 5551 5555 5560 5564 5570 5573 5576 5581 5585 5589 5593 5597 5601 5605 5609 5613 5618 5622 5626 5630 5633 5636 5640 5642 5645 5648 5650 5653 5655 5657 5660 5662 5664 5667 5669 5671 5673 5675 5676 5677 5679 5680 5681 5682 5683 5684
5532 5535 5539 5542 5546 5550 5554 5560 5562 5566 5570 5574 5578 5582 5586 5590 5593 5597 5602 5606 5611 5615 5618 5622 5625 5628 5631 5634 5637 5640 5642 5645 5647 5649 5651 5653 5656 5658 5660 5662 5663 5665 5666 5667 5668 5670 5671 5672 5673